This demonstration page uses our WeatherBlox Daily Observations layout. Learn more.

Left ArrowRight Arrow

Hourly Observations for June 15, 2021

Temp ( °F °C ) Dew Point ( °F °C ) Humidity (%) Winds ( mph kmh ) Pressure ( in mb ) Visibility ( mi km ) Precip ( " mm )
12:56 am 00:56 Clear 74 23.3 63 17.2 69 69 E 6 9 30.02 1017 10 16 0.00 0.00
1:56 am 01:56 Clear 73 22.8 63 17.2 71 71 SSE 7 11 30.02 1017 10 16 0.00 0.00
2:56 am 02:56 Clear 72 22.2 63 17.2 73 73 Calm 30.02 1017 10 16 0.00 0.00
3:56 am 03:56 Clear 72 22.2 64 17.8 76 76 S 5 7 30.02 1017 10 16 0.00 0.00
4:56 am 04:56 Clear 67 19.4 62 16.7 84 84 ENE 5 7 30.04 1017 10 16 0.00 0.00
5:56 am 05:56 Clear 65 18.3 62 16.7 90 90 NE 3 6 30.05 1018 10 16 0.00 0.00
6:56 am 06:56 Sunny 67 19.4 64 17.8 91 91 E 3 6 30.04 1017 10 16 0.00 0.00
7:56 am 07:56 Sunny 73 22.8 66 18.9 79 79 E 5 7 30.06 1018 10 16 0.00 0.00
8:56 am 08:56 Sunny 78 25.6 67 19.4 69 69 E 6 9 30.06 1018 10 16 0.00 0.00
9:56 am 09:56 Sunny 82 27.8 67 19.4 60 60 VRB 3 6 30.07 1018 9 14 0.00 0.00
10:56 am 10:56 Sunny 85 29.4 68 20 57 57 Calm 30.06 1018 10 16 0.00 0.00
11:56 am 11:56 Sunny 89 31.7 68 20 50 50 Calm 30.05 1018 9 14 0.00 0.00
12:56 pm 12:56 Sunny 90 32.2 68 20 48 48 Calm 30.03 1017 10 16 0.00 0.00
1:56 pm 13:56 Sunny 93 33.9 69 20.6 46 46 SE 10 17 30.00 1016 10 16 0.00 0.00
2:56 pm 14:56 Sunny 95 35 66 18.9 39 39 SSW 12 19 29.99 1016 10 16 0.00 0.00
3:56 pm 15:56 Partly Cloudy 95 35 66 18.9 39 39 S 10 17 29.98 1015 10 16 0.00 0.00
4:56 pm 16:56 Sunny 95 35 65 18.3 37 37 SSW 14 22 29.98 1015 10 16 0.00 0.00
5:56 pm 17:56 Sunny 95 35 65 18.3 37 37 S 7 11 29.98 1015 10 16 0.00 0.00
6:56 pm 18:56 Sunny 94 34.4 67 19.4 41 41 S 9 15 29.96 1015 10 16 0.00 0.00
7:17 pm 19:17 Sunny with Nearby Thunderstorms 93 34 66 19 41 41 S 8 13 29.84 1011 10 16 0.00 0.00
7:54 pm 19:54 Sunny 91 33 68 20 46 46 SSE 9 15 29.86 1011 10 16 0.00 0.00
7:56 pm 19:56 Sunny 92 33.3 68 20 46 46 SSE 9 15 29.96 1015 10 16 0.00 0.00
8:56 pm 20:56 Sunny 86 30 68 20 55 55 SSE 7 11 29.96 1015 10 16 0.00 0.00
9:56 pm 21:56 Clear 81 27.2 67 19.4 62 62 SE 6 9 29.96 1015 10 16 0.00 0.00
10:56 pm 22:56 Clear 79 26.1 67 19.4 67 67 SE 7 11 29.97 1015 10 16 0.00 0.00
11:56 pm 23:56 Clear 76 24.4 67 19.4 74 74 SE 9 15 29.97 1015 10 16 0.00 0.00

Powered by AerisWeather